MDT,Max TemperatureF,Mean TemperatureF,Min TemperatureF,Max Dew PointF,MeanDew PointF,Min DewpointF,Max Humidity, Mean Humidity, Min Humidity, Max Sea Level PressureIn, Mean Sea Level PressureIn, Min Sea Level PressureIn, Max VisibilityMiles, Mean VisibilityMiles, Min VisibilityMiles, Max Wind SpeedMPH, Mean Wind SpeedMPH, Max Gust SpeedMPH,PrecipitationIn, CloudCover, Events, WindDirDegrees
2011-10-1,91,66,41,39,35,32,70,37,13,30.00,29.95,29.91,10,10,10,10,5,16,0.00,0,,164
2011-10-2,92,70,47,41,37,31,66,35,11,29.92,29.87,29.83,10,10,10,20,7,24,0.00,0,,147
2011-10-3,86,66,46,48,45,41,80,54,22,30.01,29.95,29.88,10,10,10,17,6,22,0.00,0,,15
2011-10-4,89,67,45,47,44,41,89,51,19,29.94,29.78,29.61,10,10,10,23,9,29,0.00,0,,122
2011-10-5,85,72,59,44,39,33,44,30,22,29.60,29.55,29.49,10,10,10,35,17,45,0.00,0,,150
2011-10-6,70,62,54,56,51,40,93,69,37,29.53,29.47,29.38,10,9,3,28,15,36,0.29,5,Rain-Thunderstorm,138
2011-10-7,60,52,44,55,47,36,93,79,54,29.81,29.49,29.31,10,9,2,38,20,47,0.02,6,Rain,214
2011-10-8,54,49,43,48,43,39,93,76,59,30.26,30.07,29.80,10,10,5,21,10,26,T,8,Rain,320
2011-10-9,50,47,43,45,42,38,93,84,71,30.28,30.10,29.94,10,7,2,13,4,14,0.03,8,Rain,67
2011-10-10,65,51,36,47,41,33,100,80,31,29.91,29.81,29.70,10,8,4,17,5,22,0.12,5,Rain,214
2011-10-11,72,51,30,47,36,28,92,61,25,29.73,29.68,29.61,10,10,10,20,3,24,0.02,3,,320
2011-10-12,65,51,36,43,37,31,93,58,31,29.94,29.85,29.73,10,10,10,32,15,39,0.00,1,,294
2011-10-13,61,47,32,33,30,26,82,58,27,29.97,29.92,29.86,10,10,10,31,14,39,0.00,0,,300
2011-10-14,56,43,30,29,26,20,82,57,26,30.09,30.04,29.99,10,10,10,28,11,35,0.00,1,,299
2011-10-15,52,43,33,39,35,25,92,76,35,30.04,29.96,29.89,10,10,8,14,4,18,0.06,7,Rain,334
2011-10-16,52,39,26,35,27,20,96,68,29,30.19,30.12,30.06,10,10,10,20,8,25,T,1,,295
2011-10-17,56,43,29,30,24,19,78,52,24,30.22,30.15,30.05,10,10,10,26,11,36,0.00,2,,311
2011-10-18,57,41,24,29,24,20,88,59,27,30.31,30.28,30.22,10,10,9,26,9,33,0.00,2,,315
2011-10-19,53,35,17,28,23,14,91,62,38,30.27,30.18,30.07,10,10,10,14,7,20,0.00,0,,132
2011-10-20,66,46,26,33,25,18,75,56,27,30.07,29.99,29.90,10,10,10,13,7,17,0.00,0,,190
2011-10-21,64,47,30,37,33,28,92,66,36,30.16,30.09,29.99,10,10,10,17,5,22,0.00,0,,304
2011-10-22,67,49,31,40,33,26,92,62,29,30.11,30.01,29.91,10,10,10,24,7,32,0.01,2,Snow,281
2011-10-23,64,47,30,40,34,26,92,64,30,30.06,29.96,29.86,10,10,10,28,10,33,0.03,2,Rain,298
2011-10-24,58,45,31,36,27,19,79,58,23,30.07,30.01,29.90,10,10,10,21,9,26,0.00,4,,71
2011-10-25,51,39,27,39,33,26,92,79,46,30.29,30.12,30.00,10,10,9,26,10,33,0.14,6,Rain,290
2011-10-26,49,35,20,31,23,17,92,71,37,30.31,30.24,30.14,10,10,10,18,6,25,0.00,2,,295
2011-10-27,53,35,17,26,22,17,91,65,30,30.17,30.09,30.00,10,10,10,25,7,32,0.00,1,,291
2011-10-28,51,35,19,24,17,9,88,56,17,30.28,30.18,30.00,10,10,10,17,5,23,0.00,0,,280
2011-10-29,62,47,32,33,24,16,82,51,25,30.00,29.88,29.76,10,10,10,32,13,40,0.00,4,,249
2011-10-30,53,39,25,26,21,16,81,57,24,30.10,30.05,29.96,10,10,10,22,8,29,0.00,0,,293
2011-10-31,71,51,30,40,27,19,61,46,22,29.95,29.84,29.72,10,10,10,31,9,40,T,3,Rain,270